Sioux Falls, SD

2:44 PM CDT on October 18, 2019 (GMT -0500)
Foss

Weather History for KFSD - August, 2019

Change the Weather History Date:

Wednesday, August 7, 2019

  Actual Average Record
Temperature  
Mean Temperature 75 °F 72 °F  
Max Temperature 87 °F 83 °F 100 °F (1896)
Min Temperature 62 °F 61 °F 46 °F (1904)
Degree Days  
Heating Degree Days 0 0  
Month to date heating degree days 0 0  
Since 1 June heating degree days 20 59  
Since 1 July heating degree days 0 8  
Cooling Degree Days 10 7  
Month to date cooling degree days 70 55  
Year to date cooling degree days 598 482  
Since 1 June cooling degree days 583 446  
Growing Degree Days 24 (Base 50)    
Moisture  
Dew Point 65 °F    
Average Humidity 70    
Maximum Humidity 93    
Minimum Humidity 46    
Precipitation  
Precipitation 0.00 in 0.10 in 1.88 in (1938)
Month to date precipitation 0.13 0.72  
Year to date precipitation 27.32 17.06  
Snow  
Snow 0.00 in 0.00 in 0.00 in ()
Month to date snowfall 0.0 0.0  
Since 1 June snowfall T 0.0  
Since 1 July snowfall T 0.0  
Snow Depth 0.00 in    
Sea Level Pressure  
Sea Level Pressure 29.84 in    
Wind  
Wind Speed 5 mph (North)    
Max Wind Speed 15 mph    
Max Gust Speed 22 mph    
Visibility 10 miles    
Events      
T = Trace of Precipitation, MM = Missing Value Source: NWS Daily Summary

Daily Weather History Graph

Daily Weather History Graph

Search for Another Location

Airport or City:

Astronomy

Aug. 07, 2019 Rise Set
Actual Time 6:22 AM CDT 8:42 PM CDT
Civil Twilight 5:50 AM CDT 9:13 PM CDT
Nautical Twilight 5:10 AM CDT 9:53 PM CDT
Astronomical Twilight 4:26 AM CDT 10:37 PM CDT
Moon 2:10 PM CDT (8/7) 12:16 AM CDT (8/7)
Length of Visible Light 15h 23m
Length of Day
14h 19m
Waxing Crescent, 50% of the Moon is Illuminated
Aug 7
Waxing Crescent
Aug 7
First Quarter
Aug 15
Full
Aug 23
Last Quarter
Aug 30
New

Hourly Weather History & Observations

Time (CDT) Temp. Heat Index Dew Point Humidity Pressure Visibility Wind Dir Wind Speed Gust Speed Precip Events Conditions
12:56 AM 73.9 °F - 64.0 °F 71% 29.80 in 10.0 mi SSW 12.7 mph - N/A   Clear
1:56 AM 72.0 °F - 64.0 °F 76% 29.81 in 10.0 mi SSW 5.8 mph - N/A   Clear
2:56 AM 71.1 °F - 64.0 °F 78% 29.79 in 10.0 mi SSW 5.8 mph - N/A   Clear
3:56 AM 68.0 °F - 63.0 °F 84% 29.80 in 10.0 mi Calm Calm - N/A   Clear
4:56 AM 66.0 °F - 63.0 °F 90% 29.81 in 10.0 mi Calm Calm - N/A   Partly Cloudy
5:56 AM 64.9 °F - 63.0 °F 93% 29.83 in 10.0 mi Calm Calm - N/A   Partly Cloudy
6:56 AM 64.9 °F - 63.0 °F 93% 29.84 in 10.0 mi Calm Calm - N/A   Scattered Clouds
7:56 AM 71.1 °F - 64.0 °F 78% 29.85 in 10.0 mi NW 3.5 mph - N/A   Scattered Clouds
8:56 AM 73.9 °F - 64.0 °F 71% 29.85 in 10.0 mi NW 6.9 mph - N/A   Scattered Clouds
9:56 AM 75.9 °F - 64.9 °F 69% 29.84 in 10.0 mi NNW 8.1 mph - N/A   Scattered Clouds
10:56 AM 79.0 °F - 66.9 °F 66% 29.85 in 10.0 mi North 8.1 mph - N/A   Scattered Clouds
11:56 AM 82.0 °F 84.5 °F 66.9 °F 60% 29.84 in 10.0 mi Variable 4.6 mph - N/A   Scattered Clouds
12:56 PM 84.9 °F 88.8 °F 69.1 °F 59% 29.84 in 10.0 mi NNW 10.4 mph - N/A   Scattered Clouds
1:56 PM 86.0 °F 88.2 °F 66.0 °F 51% 29.84 in 10.0 mi NNW 11.5 mph - N/A   Scattered Clouds
2:56 PM 87.1 °F 88.9 °F 64.9 °F 48% 29.83 in 10.0 mi North 10.4 mph - N/A   Scattered Clouds
3:56 PM 87.1 °F 88.9 °F 64.9 °F 48% 29.84 in 10.0 mi ENE 5.8 mph - N/A   Mostly Cloudy
4:56 PM 87.1 °F 89.2 °F 66.0 °F 49% 29.84 in 10.0 mi NE 3.5 mph - N/A   Mostly Cloudy
5:56 PM 86.0 °F 87.6 °F 64.9 °F 49% 29.84 in 10.0 mi North 3.5 mph - N/A   Partly Cloudy
6:56 PM 84.0 °F 86.3 °F 66.0 °F 55% 29.84 in 10.0 mi North 9.2 mph - N/A   Partly Cloudy
7:56 PM 79.0 °F - 64.0 °F 60% 29.85 in 10.0 mi North 8.1 mph - N/A   Scattered Clouds
8:56 PM 75.9 °F - 62.1 °F 62% 29.86 in 10.0 mi North 6.9 mph - N/A   Scattered Clouds
9:56 PM 71.1 °F - 63.0 °F 75% 29.88 in 10.0 mi Calm Calm - N/A   Scattered Clouds
10:56 PM 70.0 °F - 64.0 °F 81% 29.89 in 10.0 mi Calm Calm - N/A   Scattered Clouds
11:56 PM 71.1 °F - 63.0 °F 75% 29.90 in 10.0 mi NE 4.6 mph - N/A   Scattered Clouds